FW0208 Weather Reports


time (UTC)temp
C
wind
direction
speed
KPH
gust
KPH
rain 1hr
cm
rain 24hr
cm
rain mn
cm
humidity
%
barometer
mb
20260510091522 15 52 9.7 25.7 0.00 0.00 0.00 61 1013.5
20260510090025 15 28 11.3 27.4 0.00 0.00 0.00 60 1013.5
20260510084516 16 42 11.3 25.7 0.00 0.00 0.00 60 1013.4
20260510083012 15 338 11.3 24.1 0.00 0.00 0.00 61 1013.5
20260510081511 15 28 16.1 29.0 0.00 0.00 0.00 61 1013.6
20260510080007 15 12 9.7 33.8 0.00 0.00 0.00 63 1013.7
20260510074505 14 355 14.5 29.0 0.00 0.00 0.00 63 1013.9
20260510073114 14 15 11.3 27.4 0.00 0.00 0.00 65 1014.0
20260510071558 13 360 14.5 20.9 0.00 0.00 0.00 67 1014.0
20260510070054 13 344 11.3 25.7 0.00 0.00 0.00 68 1014.0
20260510064551 13 5 9.7 20.9 0.00 0.00 0.00 70 1014.0
20260510063050 12 15 9.7 22.5 0.00 0.00 0.00 73 1014.0
20260510061546 12 355 9.7 22.5 0.00 0.00 0.00 74 1014.0
20260510060040 12 15 8.0 24.1 0.00 0.00 0.00 78 1014.1
20260510054539 11 355 9.7 25.7 0.00 0.00 0.00 81 1014.0
20260510053036 11 346 11.3 24.1 0.00 0.00 0.00 83 1014.0
20260510051532 10 39 9.7 19.3 0.00 0.00 0.00 84 1014.1
20260510050029 10 333 4.8 17.7 0.00 0.00 0.00 84 1014.0
20260510044527 10 347 8.0 17.7 0.00 0.00 0.00 84 1013.9
20260510043025 10 355 8.0 17.7 0.00 0.00 0.00 84 1013.8
20260510041521 10 346 8.0 17.7 0.00 0.00 0.00 84 1013.8
20260510040020 10 334 6.4 12.9 0.00 0.00 0.00 84 1013.8
20260510034525 10 5 3.2 12.9 0.00 0.00 0.00 84 1013.9
20260510033021 10 342 4.8 12.9 0.00 0.00 0.00 84 1013.9
20260510031513 10 345 3.2 9.7 0.00 0.00 0.00 84 1014.0
20260510030021 11 350 8.0 14.5 0.00 0.00 0.00 84 1014.0
20260510024510 11 5 6.4 12.9 0.00 0.00 0.00 83 1014.1
20260510023007 11 18 3.2 16.1 0.00 0.00 0.00 83 1014.1
20260510021509 11 28 4.8 14.5 0.00 0.00 0.00 83 1014.1
20260510020002 11 20 6.4 14.5 0.00 0.00 0.00 82 1014.2
20260510014602 11 20 4.8 16.1 0.00 0.00 0.00 81 1014.2
20260510013059 11 355 4.8 14.5 0.00 0.00 0.00 81 1014.3
20260510011556 11 336 4.8 12.9 0.00 0.00 0.00 80 1014.3
20260510010054 11 344 4.8 9.7 0.00 0.00 0.00 80 1014.4
20260510004552 11 350 6.4 12.9 0.00 0.00 0.00 80 1014.4
20260510003103 11 360 3.2 12.9 0.00 0.00 0.00 80 1014.5
20260510001549 11 350 4.8 12.9 0.00 0.00 0.00 80 1014.6
20260510000047 11 20 4.8 9.7 0.00 0.00 0.00 79 1014.7
20260509234546 11 345 4.8 8.0 0.00 0.00 0.00 78 1014.9
20260509233144 11 355 4.8 9.7 0.00 0.00 0.00 78 1014.9
20260509231541 11 21 3.2 8.0 0.00 0.00 0.00 77 1015.0
20260509230048 11 343 3.2 9.7 0.00 0.00 0.00 75 1015.1
20260509224547 12 350 3.2 9.7 0.00 0.00 0.00 74 1015.0
20260509223043 12 5 4.8 9.7 0.00 0.00 0.00 73 1014.9
20260509221534 12 355 6.4 12.9 0.00 0.00 0.00 72 1014.9
20260509220031 12 5 4.8 9.7 0.00 0.00 0.00 71 1014.9
20260509214530 12 41 4.8 12.9 0.00 0.00 0.00 70 1014.9
20260509213029 12 22 4.8 17.7 0.00 0.00 0.00 69 1014.9
20260509211527 12 13 6.4 16.1 0.00 0.00 0.00 67 1014.8
20260509210026 12 5 6.4 14.5 0.00 0.00 0.00 66 1014.7
20260509204524 13 351 6.4 12.9 0.00 0.00 0.00 63 1014.8
20260509203023 13 360 6.4 12.9 0.00 0.00 0.00 62 1014.7
20260509201520 13 325 4.8 14.5 0.00 0.00 0.00 62 1014.6
20260509200020 13 24 6.4 16.1 0.00 0.00 0.00 63 1014.7
20260509194522 14 342 4.8 12.9 0.00 0.00 0.00 64 1014.7
20260509193020 15 344 6.4 14.5 0.00 0.00 0.00 63 1014.5
20260509191518 15 355 6.4 16.1 0.00 0.00 0.00 62 1014.5
20260509190017 15 355 8.0 17.7 0.00 0.00 0.00 61 1014.5
20260509184525 16 336 9.7 17.7 0.00 0.00 0.00 61 1014.4
20260509183017 16 350 11.3 17.7 0.00 0.00 0.00 60 1014.5
20260509181515 17 326 6.4 17.7 0.00 0.00 0.00 59 1014.3
20260509180015 17 346 14.5 20.9 0.00 0.00 0.00 57 1014.3
20260509174515 18 345 11.3 25.7 0.00 0.00 0.00 55 1014.2
20260509173017 19 360 11.3 20.9 0.00 0.00 0.00 54 1014.1
20260509171513 20 306 9.7 20.9 0.00 0.00 0.00 52 1014.0
20260509170014 20 57 4.8 17.7 0.00 0.00 0.00 47 1014.0
20260509164511 21 33 8.0 19.3 0.00 0.00 0.00 47 1014.1
20260509163010 21 32 9.7 19.3 0.00 0.00 0.00 46 1014.2
20260509161508 21 360 9.7 16.1 0.00 0.00 0.00 44 1014.2
20260509160009 21 338 6.4 19.3 0.00 0.00 0.00 44 1014.2
20260509154508 21 324 11.3 19.3 0.00 0.00 0.00 44 1014.1
20260509153005 21 331 6.4 17.7 0.00 0.00 0.00 44 1014.1
20260509151503 22 360 9.7 22.5 0.00 0.00 0.00 44 1014.2
20260509150001 22 360 14.5 20.9 0.00 0.00 0.00 45 1014.2
20260509144602 21 64 8.0 20.9 0.00 0.00 0.00 46 1014.2
20260509143109 22 42 6.4 22.5 0.00 0.00 0.00 46 1014.3
20260509141557 22 320 6.4 19.3 0.00 0.00 0.00 45 1014.4
20260509140055 21 45 9.7 19.3 0.00 0.00 0.00 45 1014.5
20260509134552 22 51 12.9 19.3 0.00 0.00 0.00 46 1014.7
20260509133104 21 56 8.0 17.7 0.00 0.00 0.00 48 1014.7
20260509131549 22 34 9.7 20.9 0.00 0.00 0.00 47 1014.9
20260509130049 22 28 9.7 16.1 0.00 0.00 0.00 44 1015.0
20260509124549 21 15 9.7 20.9 0.00 0.00 0.00 48 1015.2
20260509123044 21 31 11.3 24.1 0.00 0.00 0.00 48 1015.4
20260509121549 21 72 9.7 22.5 0.00 0.00 0.00 49 1015.5
20260509120039 21 63 12.9 20.9 0.00 0.00 0.00 48 1015.6
20260509114537 21 336 9.7 17.7 0.00 0.00 0.00 46 1015.8
20260509113036 21 11 8.0 20.9 0.00 0.00 0.00 49 1015.9
20260509111531 21 57 6.4 19.3 0.00 0.00 0.00 52 1016.2
20260509110030 20 23 8.0 19.3 0.00 0.00 0.00 52 1016.2
20260509104527 20 5 8.0 19.3 0.00 0.00 0.00 51 1016.3
20260509103024 20 360 8.0 19.3 0.00 0.00 0.00 54 1016.4
20260509101529 20 55 8.0 17.7 0.00 0.00 0.00 54 1016.4
20260509100022 20 44 9.7 17.7 0.00 0.00 0.00 51 1016.6
20260509094528 19 67 6.4 17.7 0.00 0.00 0.00 53 1016.6
20260509093018 19 22 9.7 17.7 0.00 0.00 0.00 55 1016.6